This demonstration page uses our WeatherBlox Daily Observations layout. Learn more.

Left ArrowRight Arrow

39.51506, -84.39828

Hourly Observations for July 4, 2021

Temp ( °F °C ) Dew Point ( °F °C ) Humidity (%) Winds ( mph kmh ) Pressure ( in mb ) Visibility ( mi km ) Precip ( " mm )
12:15 am 00:15 Clear 64 17.8 58 14.6 82 82 SW 3 6 29.97 1015 10 16 N/A
12:35 am 00:35 Clear 65 18.1 58 14.6 80 80 SW 5 7 29.97 1015 10 16 N/A
12:55 am 00:55 Clear 62 16.8 60 15.5 92 92 SW 5 7 29.97 1015 7 11 N/A
1:15 am 01:15 Mostly Cloudy 64 18 60 15.4 85 85 SSW 7 11 29.97 1015 10 16 N/A
1:35 am 01:35 Cloudy 65 18.6 60 15.5 82 82 SSW 7 11 29.96 1014 10 16 N/A
1:55 am 01:55 Mostly Cloudy 65 18.3 60 15.4 83 83 SSW 7 11 29.96 1015 10 16 N/A
2:15 am 02:15 Cloudy 65 18.5 60 15.7 84 84 SSW 6 9 29.95 1014 10 16 N/A
2:35 am 02:35 Cloudy 66 18.9 60 15.7 82 82 SSW 6 9 29.95 1014 10 16 N/A
2:55 am 02:55 Cloudy 67 19.2 60 15.8 81 81 SSW 6 9 29.95 1014 10 16 N/A
3:15 am 03:15 Cloudy 67 19.3 60 15.7 80 80 SSW 7 11 29.94 1014 10 16 N/A
3:35 am 03:35 Cloudy 67 19.2 60 15.8 81 81 SSW 7 11 29.94 1014 10 16 N/A
3:55 am 03:55 Mostly Cloudy 66 19.1 61 15.9 82 82 SSW 7 11 29.94 1014 10 16 N/A
4:15 am 04:15 Cloudy 66 19 61 16.1 83 83 SSW 6 9 29.94 1014 10 16 N/A
4:35 am 04:35 Cloudy 67 19.4 61 16.3 82 82 SSW 6 9 29.94 1014 10 16 N/A
4:55 am 04:55 Cloudy 67 19.5 62 16.5 83 83 SSW 6 9 29.94 1014 10 16 N/A
5:15 am 05:15 Mostly Cloudy 67 19.5 62 16.4 82 82 S 6 9 29.95 1014 10 16 N/A
5:35 am 05:35 Clear 66 19.1 62 16.7 86 86 SSW 6 9 29.94 1014 10 16 N/A
5:55 am 05:55 Cloudy 68 19.8 62 16.8 83 83 SSW 5 7 29.95 1014 10 16 N/A
6:15 am 06:15 Mostly Cloudy 67 19.6 62 16.8 84 84 SW 6 9 29.95 1014 10 16 N/A
6:35 am 06:35 Sunny 67 19.6 62 16.8 84 84 WSW 5 7 29.95 1014 10 16 N/A
6:55 am 06:55 Sunny 67 19.5 63 17 86 86 N N/A 29.95 1014 10 16 N/A
7:15 am 07:15 Sunny 68 20 63 17.3 85 85 WSW 5 7 29.94 1014 10 16 N/A
7:35 am 07:35 Sunny 69 20.4 64 17.6 84 84 SW 6 9 29.95 1014 10 16 N/A
7:55 am 07:55 Sunny 70 21 64 17.8 82 82 WSW 3 6 29.94 1014 10 16 N/A
8:15 am 08:15 Sunny 71 21.6 64 18 80 80 W 3 6 29.95 1014 10 16 N/A
8:35 am 08:35 Sunny 73 22.5 65 18.5 78 78 WNW 6 9 29.95 1014 10 16 N/A
8:55 am 08:55 Sunny 74 23.2 66 18.9 77 77 WNW 7 11 29.95 1014 10 16 N/A
9:15 am 09:15 Sunny 75 23.8 67 19.2 76 76 WNW 8 13 29.95 1014 10 16 N/A
9:35 am 09:35 Sunny 76 24.3 67 19.4 74 74 NW 8 13 29.94 1014 10 16 N/A
9:55 am 09:55 Sunny 76 24.7 67 19.7 74 74 NW 7 11 29.94 1014 10 16 N/A
10:15 am 10:15 Sunny 77 25.2 68 20.1 73 73 NW 9 15 29.94 1014 10 16 N/A
10:35 am 10:35 Sunny 78 25.8 69 20.4 72 72 NNW 7 11 29.94 1014 10 16 N/A
10:55 am 10:55 Sunny 80 26.4 69 20.8 71 71 WNW 8 13 29.94 1014 10 16 N/A
11:15 am 11:15 Sunny 80 26.5 70 21 72 72 NW 8 13 29.94 1014 10 16 N/A
11:35 am 11:35 Sunny 81 27.1 71 21.4 71 71 NNW 6 9 29.94 1014 10 16 N/A
11:55 am 11:55 Sunny 81 27.3 70 21.3 70 70 N 6 9 29.94 1014 10 16 N/A
12:15 pm 12:15 Sunny 82 27.5 71 21.5 70 70 W 5 7 29.94 1014 10 16 N/A
12:35 pm 12:35 Sunny 82 27.9 71 21.7 69 69 NNW 3 6 29.94 1014 10 16 N/A
12:55 pm 12:55 Sunny 83 28.4 71 21.9 68 68 N 9 15 29.94 1014 10 16 N/A
1:15 pm 13:15 Sunny 83 28.6 71 21.9 67 67 NNW 5 7 29.94 1014 10 16 N/A
1:35 pm 13:35 Sunny 84 29 72 22 66 66 NNE 8 13 29.93 1014 10 16 N/A
1:55 pm 13:55 Sunny 85 29.4 72 22.4 66 66 N 7 11 29.93 1014 10 16 N/A
2:15 pm 14:15 Sunny 85 29.4 72 22.1 65 65 NW 7 11 29.93 1014 10 16 N/A
2:35 pm 14:35 Partly Cloudy 86 29.8 73 22.7 66 66 WNW 3 6 29.92 1013 10 16 N/A
2:55 pm 14:55 Partly Cloudy 86 29.9 72 22.4 64 64 NNE 3 6 29.92 1013 10 16 N/A
3:15 pm 15:15 Partly Cloudy 87 30.4 73 22.8 64 64 WNW 7 11 29.92 1013 10 16 N/A
3:35 pm 15:35 Partly Cloudy 87 30.8 73 22.9 63 63 NNW 9 15 29.92 1013 10 16 N/A
3:55 pm 15:55 Partly Cloudy 87 30.6 73 22.6 62 62 NW 6 9 29.92 1013 10 16 N/A
4:15 pm 16:15 Mostly Cloudy 87 30.5 72 22.2 61 61 NW 6 9 29.92 1013 10 16 N/A
4:35 pm 16:35 Partly Cloudy 88 30.9 73 22.8 62 62 NW 7 11 29.92 1013 10 16 N/A
4:55 pm 16:55 Partly Cloudy 87 30.8 74 23.2 64 64 NNW 7 11 29.91 1013 10 16 N/A
5:15 pm 17:15 Mostly Cloudy 88 30.9 73 22.6 61 61 N 5 7 29.91 1013 10 16 N/A
5:35 pm 17:35 Mostly Cloudy 88 31 74 23.2 63 63 NNW 5 7 29.91 1013 10 16 N/A
5:55 pm 17:55 Partly Cloudy 86 29.8 73 22.5 65 65 NNW 5 7 29.92 1013 10 16 N/A
6:15 pm 18:15 Partly Cloudy 87 30.5 74 23.1 65 65 N 3 6 29.92 1013 10 16 N/A
6:35 pm 18:35 Sunny 86 30.1 73 22.5 64 64 NNW 5 7 29.91 1013 10 16 N/A
6:55 pm 18:55 Sunny 86 30.1 73 23 66 66 W 5 7 29.92 1013 10 16 N/A
7:15 pm 19:15 Sunny 85 29.2 74 23.3 71 71 W 6 9 29.92 1013 10 16 N/A
7:35 pm 19:35 Mostly Cloudy 85 29.5 75 23.7 71 71 WNW 5 7 29.92 1013 10 16 N/A
7:55 pm 19:55 Mostly Cloudy 84 29.1 72 22.3 67 67 WNW 7 11 29.93 1014 10 16 N/A
8:15 pm 20:15 Mostly Cloudy 84 28.7 73 22.6 70 70 WNW 7 11 29.93 1014 10 16 N/A
8:35 pm 20:35 Sunny 82 27.7 73 22.5 73 73 WNW 6 9 29.94 1014 10 16 N/A
8:55 pm 20:55 Sunny 80 26.6 73 22.7 79 79 W 6 9 29.95 1014 10 16 N/A
9:15 pm 21:15 Clear 79 25.9 73 22.5 82 82 W 7 11 29.95 1014 10 16 N/A
9:35 pm 21:35 Clear 78 25.7 73 22.5 83 83 W 7 11 29.95 1014 10 16 N/A
9:55 pm 21:55 Clear 77 24.9 73 22.6 87 87 W 7 11 29.96 1015 10 16 N/A
10:15 pm 22:15 Clear 77 25 72 22 83 83 WNW 7 11 29.96 1015 10 16 N/A
10:35 pm 22:35 Clear 77 24.9 72 22.1 85 85 WNW 3 6 29.97 1015 10 16 N/A
10:55 pm 22:55 Clear 76 24.4 72 22 87 87 N N/A 29.97 1015 10 16 N/A
11:15 pm 23:15 Clear 76 24.3 71 21.9 87 87 WNW 6 9 29.97 1015 10 16 N/A
11:35 pm 23:35 Clear 76 24.6 71 21.6 83 83 NW 3 6 29.98 1015 10 16 N/A
11:55 pm 23:55 Clear 75 23.9 71 21.5 86 86 N N/A 29.99 1015 10 16 N/A

Powered by AerisWeather